TimeCST,TemperatureF,Dew PointF,Humidity,Sea Level PressureIn,VisibilityMPH,Wind Direction,Wind SpeedMPH,Gust SpeedMPH,PrecipitationIn,Events,Conditions,WindDirDegrees,DateUTC
12:15 AM,22.1,17.4,82,30.12,10.0,ESE,5.8,-,N/A,,Clear,120,2013-02-17 06:15:00
12:35 AM,21.7,17.4,83,30.12,10.0,ESE,5.8,-,N/A,,Clear,110,2013-02-17 06:35:00
12:55 AM,21.0,16.7,83,30.12,10.0,ESE,5.8,-,N/A,,Clear,110,2013-02-17 06:55:00
1:15 AM,20.8,16.7,84,30.12,10.0,ESE,8.1,-,N/A,,Clear,110,2013-02-17 07:15:00
1:35 AM,20.7,16.5,84,30.11,10.0,ESE,8.1,-,N/A,,Clear,110,2013-02-17 07:35:00
1:55 AM,20.3,16.5,85,30.11,10.0,ESE,8.1,-,N/A,,Clear,110,2013-02-17 07:55:00
2:15 AM,20.3,16.5,85,30.11,10.0,ESE,8.1,-,N/A,,Clear,110,2013-02-17 08:15:00
2:35 AM,20.3,16.5,85,30.11,10.0,ESE,8.1,-,N/A,,Clear,120,2013-02-17 08:35:00
2:55 AM,20.5,16.3,84,30.11,10.0,ESE,8.1,-,N/A,,Clear,120,2013-02-17 08:55:00
3:15 AM,20.3,16.0,83,30.12,10.0,ESE,9.2,-,N/A,,Scattered Clouds,120,2013-02-17 09:15:00
3:35 AM,20.1,15.8,83,30.11,10.0,ESE,9.2,-,N/A,,Scattered Clouds,120,2013-02-17 09:35:00
3:55 AM,19.9,15.8,84,30.11,10.0,ESE,9.2,-,N/A,,Mostly Cloudy,110,2013-02-17 09:55:00
4:15 AM,20.1,16.2,85,30.11,10.0,ESE,8.1,-,N/A,,Overcast,110,2013-02-17 10:15:00
4:35 AM,20.3,16.2,84,30.10,10.0,ESE,8.1,-,N/A,,Overcast,120,2013-02-17 10:35:00
4:55 AM,20.3,16.3,85,30.10,10.0,ESE,8.1,-,N/A,,Overcast,110,2013-02-17 10:55:00
5:15 AM,20.3,16.3,85,30.09,10.0,ESE,9.2,-,N/A,,Overcast,110,2013-02-17 11:15:00
5:35 AM,20.3,16.5,85,30.09,10.0,ESE,10.4,-,N/A,,Overcast,110,2013-02-17 11:35:00
5:55 AM,20.1,16.2,85,30.09,10.0,ESE,9.2,-,N/A,,Scattered Clouds,110,2013-02-17 11:55:00
6:15 AM,19.9,16.2,85,30.09,10.0,ESE,8.1,-,N/A,,Clear,120,2013-02-17 12:15:00
6:35 AM,19.9,16.0,85,30.09,10.0,ESE,8.1,-,N/A,,Clear,120,2013-02-17 12:35:00
6:55 AM,19.4,15.8,86,30.08,10.0,ESE,8.1,-,N/A,,Clear,110,2013-02-17 12:55:00
7:15 AM,19.4,15.8,86,30.07,10.0,ESE,9.2,-,N/A,,Clear,120,2013-02-17 13:15:00
7:35 AM,19.8,16.2,86,30.07,10.0,ESE,8.1,-,N/A,,Clear,120,2013-02-17 13:35:00
7:55 AM,20.7,16.7,85,30.07,10.0,ESE,9.2,-,N/A,,Clear,120,2013-02-17 13:55:00
8:15 AM,21.9,17.6,83,30.07,10.0,ESE,9.2,-,N/A,,Clear,120,2013-02-17 14:15:00
8:35 AM,23.2,18.5,82,30.06,10.0,ESE,9.2,-,N/A,,Clear,120,2013-02-17 14:35:00
8:55 AM,24.6,19.2,80,30.07,10.0,SE,9.2,-,N/A,,Clear,130,2013-02-17 14:55:00
9:15 AM,26.4,20.1,77,30.07,10.0,SE,9.2,-,N/A,,Clear,130,2013-02-17 15:15:00
9:35 AM,28.0,21.0,75,30.06,10.0,SE,10.4,-,N/A,,Clear,130,2013-02-17 15:35:00
9:55 AM,30.0,22.1,72,30.06,10.0,SE,12.7,-,N/A,,Clear,130,2013-02-17 15:55:00
10:15 AM,31.5,22.8,70,30.05,10.0,SE,11.5,-,N/A,,Clear,130,2013-02-17 16:15:00
10:35 AM,32.9,23.2,67,30.04,10.0,SE,12.7,-,N/A,,Clear,130,2013-02-17 16:35:00
11:15 AM,35.8,22.6,59,30.03,10.0,SSE,15.0,20.7,N/A,,Clear,150,2013-02-17 17:15:00
11:35 AM,37.2,23.5,58,30.02,10.0,SSE,16.1,20.7,N/A,,Clear,150,2013-02-17 17:35:00
11:55 AM,38.7,23.5,55,30.00,10.0,SE,18.4,24.2,N/A,,Clear,140,2013-02-17 17:55:00
12:15 PM,38.5,22.5,53,29.99,10.0,SE,16.1,25.3,N/A,,Clear,130,2013-02-17 18:15:00
12:55 PM,40.5,23.0,50,29.95,10.0,SE,17.3,21.9,N/A,,Clear,130,2013-02-17 18:55:00
1:15 PM,41.2,22.8,48,29.94,10.0,SE,16.1,21.9,N/A,,Clear,130,2013-02-17 19:15:00
1:35 PM,41.9,22.8,47,29.93,10.0,SSE,17.3,25.3,N/A,,Clear,150,2013-02-17 19:35:00
1:55 PM,42.3,23.0,47,29.92,10.0,SE,17.3,23.0,N/A,,Clear,140,2013-02-17 19:55:00
2:15 PM,42.8,24.1,48,29.91,10.0,SE,18.4,24.2,N/A,,Clear,140,2013-02-17 20:15:00
2:35 PM,43.5,23.5,45,29.89,10.0,SE,13.8,21.9,N/A,,Clear,140,2013-02-17 20:35:00
2:55 PM,43.5,23.5,45,29.88,10.0,SE,17.3,24.2,N/A,,Clear,130,2013-02-17 20:55:00
3:15 PM,43.9,23.2,44,29.88,10.0,SE,16.1,21.9,N/A,,Clear,140,2013-02-17 21:15:00
3:35 PM,44.1,23.4,44,29.87,10.0,SE,15.0,21.9,N/A,,Clear,140,2013-02-17 21:35:00
3:55 PM,43.9,23.5,45,29.86,10.0,SE,16.1,23.0,N/A,,Clear,130,2013-02-17 21:55:00
4:15 PM,42.8,23.5,47,29.85,10.0,SE,13.8,-,N/A,,Clear,130,2013-02-17 22:15:00
4:35 PM,42.1,23.7,48,29.85,10.0,SE,15.0,21.9,N/A,,Clear,130,2013-02-17 22:35:00
4:55 PM,41.9,23.7,49,29.84,10.0,SE,16.1,21.9,N/A,,Clear,130,2013-02-17 22:55:00
5:15 PM,41.0,24.6,52,29.83,10.0,SE,12.7,19.6,N/A,,Clear,130,2013-02-17 23:15:00
5:35 PM,40.3,24.3,53,29.83,10.0,SE,15.0,23.0,N/A,,Clear,130,2013-02-17 23:35:00
5:55 PM,39.4,24.6,56,29.83,10.0,SE,13.8,18.4,N/A,,Clear,130,2013-02-17 23:55:00
6:15 PM,38.7,24.3,56,29.82,10.0,SE,13.8,-,N/A,,Clear,130,2013-02-18 00:15:00
6:35 PM,38.5,23.9,56,29.82,10.0,SE,13.8,19.6,N/A,,Clear,130,2013-02-18 00:35:00
6:55 PM,38.3,23.7,56,29.81,10.0,SE,13.8,20.7,N/A,,Clear,130,2013-02-18 00:55:00
7:15 PM,38.3,23.7,56,29.80,10.0,SE,15.0,23.0,N/A,,Clear,130,2013-02-18 01:15:00
7:35 PM,37.9,23.4,56,29.79,10.0,SE,17.3,23.0,N/A,,Clear,130,2013-02-18 01:35:00
7:55 PM,37.8,23.5,57,29.78,10.0,SE,15.0,23.0,N/A,,Clear,130,2013-02-18 01:55:00
8:15 PM,37.6,23.4,57,29.78,10.0,SE,17.3,24.2,N/A,,Clear,130,2013-02-18 02:15:00
8:35 PM,37.6,23.0,56,29.77,10.0,SE,15.0,21.9,N/A,,Clear,130,2013-02-18 02:35:00
9:15 PM,36.5,23.4,59,29.77,10.0,SE,12.7,-,N/A,,Clear,130,2013-02-18 03:15:00
9:35 PM,36.5,22.8,58,29.77,10.0,SE,9.2,-,N/A,,Clear,140,2013-02-18 03:35:00
9:55 PM,36.9,22.6,56,29.77,10.0,SE,12.7,-,N/A,,Clear,140,2013-02-18 03:55:00
10:15 PM,36.9,22.8,57,29.75,10.0,SE,13.8,18.4,N/A,,Clear,140,2013-02-18 04:15:00
10:35 PM,36.7,23.0,58,29.74,10.0,SE,15.0,18.4,N/A,,Clear,130,2013-02-18 04:35:00
10:55 PM,36.1,23.4,60,29.73,10.0,SE,10.4,-,N/A,,Clear,130,2013-02-18 04:55:00
11:15 PM,36.0,23.7,61,29.72,10.0,SE,12.7,17.3,N/A,,Clear,140,2013-02-18 05:15:00
11:35 PM,36.1,23.7,61,29.71,10.0,SE,12.7,18.4,N/A,,Clear,130,2013-02-18 05:35:00
11:55 PM,35.4,24.3,64,29.71,10.0,SE,10.4,-,N/A,,Clear,130,2013-02-18 05:55:00